Flag for Germany Weather past 2 weeks in Schleswig, Schleswig-Holstein, Germany

Now
35 °F

Fog.


Feels Like: 29 °F
Forecast: 36 / 42 °F
Wind: 6 mph from Southwest

Location: Schleswig

Current Time: Jan 26, 2015 at 4:24:06 AM

Latest Report: Jan 26, 2015 at 3:00 AM


Visibility: 0 mi

Pressure: 30.16 "Hg

Humidity: 100%

Dew point: 35 °F

Location of SchleswigLocation

Historic Weather in Schleswig — Graph

°F

Schleswig temperature yesterday

Maximum temperature yesterday: 39 °F (at 1:00 PM)
Minimum temperature yesterday: 31 °F (at 2:00 AM)
Average temperature yesterday: 35 °F

Past Weeks' High & Low Weather Summary

 TemperatureHumidityPressure
High48 °F (Jan 13, 11:00 AM)100% (Jan 13, 8:00 AM)30.31 "Hg (Jan 13, 8:00 AM)
Low22 °F (Jan 23, 8:00 AM)65% (Jan 11, 1:00 PM)29.26 "Hg (Jan 15, 3:00 PM)
Average35 °F94%29.84 "Hg
* Reported Jan 11 3:00 AM — Jan 26 3:00 AM, Schleswig, Weather by CustomWeather, © 2014

Note: Actual official high and low records may vary slightly from our data, if they occured in-between our weather recording intervals... More about our weather records

Advertising

Schleswig weather history for previous 24 hours

 ConditionsComfort  
Time TempWeatherWind HumidityBarometerVisibility
3:00 AM
Jan 26
35 °FFog.6 mph100%30.16 "Hg0 mi
2:00 AM35 °FFog.5 mph100%30.19 "Hg0 mi
1:00 AM35 °FFog.5 mph100%30.20 "Hg0 mi
12:00 AM35 °FFog.3 mph100%30.22 "Hg0 mi
11:00 PM
Jan 25
36 °FFog.3 mph100%30.24 "Hg1 mi
9:00 PM36 °FFog.3 mph100%30.26 "Hg4 mi
8:00 PM36 °FFog.2 mph100%30.25 "Hg2 mi
7:00 PM37 °FFog.2 mph99%30.25 "Hg4 mi
6:00 PM38 °FOvercast.2 mph99%30.26 "Hg2 mi
5:00 PM38 °FSprinkles. Overcast.2 mph98%30.25 "Hg4 mi
4:00 PM39 °FSprinkles. Overcast.2 mph97%30.24 "Hg2 mi
3:00 PM39 °FSprinkles. Partly sunny.3 mph96%30.24 "Hg4 mi
2:00 PM39 °FSprinkles. Overcast.2 mph95%30.23 "Hg4 mi
1:00 PM39 °FOvercast.2 mph92%30.24 "Hg9 mi
12:00 PM39 °FOvercast.2 mph91%30.25 "Hg11 mi
11:00 AM38 °FPartly sunny.2 mph91%30.24 "Hg12 mi
9:00 AM32 °FPartly sunny.3 mph98%30.23 "Hg16 mi
8:00 AM33 °FPassing clouds.3 mph100%30.22 "Hg12 mi
7:00 AM31 °FPassing clouds.5 mph100%30.20 "Hg16 mi
6:00 AM31 °FPassing clouds.5 mph100%30.19 "Hg16 mi
Weather by CustomWeather, © 2014

See weather overviewHow to use our weather pages